#timestamp,LO_Frequency,Hit,StdDev 
1455602415.5,286047006.0,N
1455602435.4,286047003.1,N
1455602455.2,286047005.5,N
1455602475.0,286047002.0,N
1455602475.9,286047002.0,N
1455602495.7,286047004.0,N
1455602515.6,286047002.6,N
1455602535.4,286047001.8,N
1455602555.2,286047005.3,N
1455602575.1,286047005.1,N
1455602576.0,286047005.1,N
1455602595.8,286047002.2,N
1455602615.6,286046997.0,N
1455602635.5,286046997.2,N
1455602655.3,286046995.3,N
1455602675.1,286046993.4,N
1455602695.9,286046990.8,N
1455602715.7,286046991.5,N
1455602735.5,286046990.0,N
1455602755.4,286046988.4,N
1455602775.2,286046988.1,N
1455602795.0,286046989.5,N
1455602795.9,286046989.5,N
1455602815.8,286046989.7,N
1455602835.6,286046985.3,N
1455602855.4,286046986.7,N
1455602875.2,286046984.9,N
1455602895.1,286046983.5,N
1455602896.0,286046983.5,N
1455602915.8,286046984.5,N
1455602935.6,286046982.4,N
1455602955.5,286046979.7,N
1455602975.3,286046978.6,N
1455602995.1,286046974.3,Y
1455603015.9,286046983.9,P
1455603035.7,286046986.7,P
1455603055.5,286046982.9,P
1455603075.4,286046981.0,Y
1455603095.2,286046996.2,P
1455603115.0,286046994.2,N
1455603115.9,286046994.2,N
1455603135.8,286046993.7,N
1455603155.6,286046992.3,N
1455603175.4,286046994.8,N
1455603195.3,286046994.1,N
1455603215.1,286046992.0,N
1455603216.0,286046992.0,Y
1455603235.8,286047001.2,P
1455603255.7,286047000.6,N
1455603275.5,286047000.9,N
1455603295.3,286047006.0,N
1455603315.2,286047001.7,N
1455603335.9,286047003.2,N
1455603355.7,286047001.8,N
1455603375.6,286047007.5,N
1455603395.4,286047004.5,N
1455603415.2,286047003.1,N
1455603435.1,286047003.1,N
1455603436.0,286047003.1,N
1455603455.8,286047008.5,N
1455603475.6,286047005.2,N
1455603495.5,286047002.9,N
1455603515.3,286047005.3,N
1455603535.1,286047002.9,N
1455603555.8,286047002.9,N
1455603575.7,286047003.3,N
1455603595.5,286047007.0,N
1455603615.3,286047009.1,N
1455603635.2,286047006.4,N
1455603655.9,286047010.6,Y
1455603675.7,286047007.8,P
1455603695.6,286047009.7,P
1455603715.4,286047009.3,P
1455603735.2,286047012.5,Y
1455603755.1,286047010.5,P
1455603756.0,286047010.5,P
1455603775.8,286047010.0,P
1455603795.6,286047009.9,Y
1455603815.5,286047002.7,P
1455603835.3,286047003.6,N
1455603855.1,286047003.3,N
1455603875.9,286047005.3,N
1455603895.7,286047007.3,N
1455603915.5,286047007.7,Y
1455603935.4,286047004.1,P
1455603955.2,286047003.6,P
1455603975.0,286047004.2,P
1455603975.9,286047004.2,Y
1455603995.8,286047002.8,P
1455604015.6,286047001.3,N
1455604035.4,286047002.5,N
1455604055.3,286047004.0,Y
1455604075.1,286047003.0,P
1455604095.8,286047003.5,P
1455604115.7,286047003.9,P
1455604135.5,286047005.2,Y
1455604155.3,286047003.7,P
1455604175.2,286047002.7,P
1455604195.9,286047001.1,N
1455604215.7,286047001.1,N
1455604235.6,286047000.9,N
1455604255.4,286046997.8,N
1455604275.2,286046996.7,N
1455604295.1,286046994.2,N
1455604296.0,286046994.2,N
1455604315.8,286046994.0,N
1455604335.6,286046997.5,N
1455604355.4,286046995.0,N
1455604375.3,286046996.8,N
1455604395.1,286046996.1,N
1455604415.8,286046996.0,N
1455604435.7,286046997.5,N
1455604455.5,286046999.3,N
1455604475.3,286046999.2,N
1455604495.2,286046999.6,N
1455604515.9,286046997.6,N
1455604535.7,286046999.4,N
1455604555.6,286046996.9,N
1455604575.4,286046999.0,N
1455604595.2,286046999.1,N
1455604615.1,286046996.3,N
1455604616.0,286046996.3,N
1455604635.8,286046994.1,N
1455604655.6,286046994.1,N
1455604675.4,286046996.0,N
1455604695.3,286046994.8,N
1455604715.1,286046994.5,N
1455604735.8,286046994.1,N
1455604755.7,286046993.7,N
1455604775.5,286047001.2,N
1455604795.3,286047005.7,N
1455604815.2,286047007.1,N
1455604835.9,286047010.3,Y
1455604855.7,286047011.6,P
1455604875.6,286047018.3,N
1455604895.4,286047016.9,N
1455604915.2,286047012.7,N
1455604935.1,286047015.5,N
1455604936.0,286047015.5,N
1455604955.8,286047008.0,N
1455604975.6,286047004.9,N
1455604995.5,286047001.8,N
1455605015.3,286047003.8,N
1455605035.1,286047003.9,N
1455605055.9,286047006.1,N
1455605075.7,286047006.8,N
1455605095.5,286047009.0,N
1455605115.3,286047008.5,N
1455605135.2,286047010.2,N
1455605155.0,286047010.0,N
1455605155.9,286047010.0,N
1455605175.7,286047011.5,N
1455605195.6,286047011.4,N
1455605215.4,286047010.6,N
1455605235.2,286047008.3,N
1455605255.1,286047008.8,N
1455605256.0,286047008.8,N
1455605275.8,286047006.8,N
1455605295.6,286047003.4,N
1455605315.5,286047003.3,N
1455605335.3,286047001.3,N
1455605355.1,286047001.5,N
1455605375.9,286047000.5,N
1455605395.7,286046997.7,N
1455605415.5,286046994.3,N
1455605435.3,286046995.5,N
1455605455.2,286046995.7,N
1455605475.0,286046999.1,N
1455605475.9,286046999.1,N
1455605495.7,286046995.2,N
1455605515.6,286046996.1,N
1455605535.4,286046993.5,N
1455605555.2,286046993.8,N
1455605575.1,286046990.6,N
1455605576.0,286046990.6,N
1455605595.8,286046987.9,N
1455605615.6,286046982.4,N
1455605635.5,286046982.9,N
1455605655.3,286046980.9,N
1455605675.1,286046984.5,N
1455605695.9,286046984.7,N
1455605715.7,286046984.2,N
1455605735.5,286046980.5,N
1455605755.4,286046985.2,N
1455605775.2,286046980.9,N
1455605795.0,286046981.1,N
1455605795.9,286046981.1,N
1455605815.8,286046977.4,N
1455605835.6,286046976.5,N
1455605855.4,286046976.4,N
1455605875.2,286046978.3,N
1455605895.1,286046978.5,N
1455605896.0,286046978.5,N
1455605915.8,286046977.5,Y
1455605935.7,286046992.7,P
1455605955.5,286046994.6,N
1455605975.3,286046992.6,N
1455605995.1,286046991.6,N
1455602415.1,286046993.9,N
1455602416.0,286046993.9,N
1455602435.8,286046993.9,N
1455602455.6,286046995.7,N
1455602475.5,286046996.4,N
1455602495.3,286046993.9,N
1455602515.1,286046994.1,N
1455602535.8,286046992.6,N
1455602555.7,286046988.6,N
1455602575.5,286046987.2,Y
1455602595.4,286046989.8,P
1455602615.2,286046985.8,P
1455602635.0,286046986.3,N
1455602635.9,286046986.3,N
1455602655.7,286046987.9,N
1455602675.6,286046986.3,Y
1455602695.4,286046993.8,P
1455602715.2,286046993.5,N
1455602735.1,286046996.7,N
1455602736.0,286046996.7,N
1455602755.8,286047002.8,N
1455602775.6,286046999.4,N
1455602795.5,286046998.0,N
1455602815.3,286046999.5,N
1455602835.1,286046994.9,N
1455602855.9,286046995.7,N
1455602875.7,286046996.3,N
1455602895.5,286046995.4,N
1455602915.4,286047001.2,N
1455602935.2,286047002.2,N
1455602955.0,286046999.8,N
1455602955.9,286046999.8,N
1455602975.8,286047006.0,N
1455602995.6,286047004.6,N
1455603015.4,286047005.6,N
1455603035.2,286047005.0,N
1455603055.1,286047005.3,N
1455603056.0,286047005.3,N
1455603075.8,286047007.4,N
1455603095.6,286047003.6,N
1455603115.5,286047002.1,N
1455603135.3,286047001.9,N
1455603155.1,286047001.7,N
1455603175.9,286047001.1,N
1455603195.7,286047001.3,N
1455603215.5,286047004.6,N
1455603235.4,286047007.1,N
1455603255.2,286047007.5,N
1455603275.0,286047004.7,N
1455603275.9,286047004.7,N
1455603295.8,286047007.6,N
1455603315.6,286047005.1,N
1455603335.4,286047005.5,N
1455603355.2,286047003.1,N
1455603375.1,286047004.9,N
1455603376.0,286047004.9,N
1455603395.8,286047007.5,N
1455603415.6,286047007.1,N
1455603435.5,286047005.6,N
1455603455.3,286047004.5,N
1455603475.1,286047003.3,N
1455603495.9,286047003.5,N
1455603515.7,286047003.8,N
1455603535.5,286047007.3,Y
1455603555.4,286046999.7,P
1455603575.2,286047002.4,N
1455603595.0,286047001.5,N
1455603595.9,286047001.5,N
1455603615.8,286047004.2,N
1455603635.6,286047005.1,N
1455603655.4,286047007.5,Y
1455603675.3,286047004.1,P
1455603695.1,286047003.0,P
1455603696.0,286047003.0,P
1455603715.8,286047003.6,Y
1455603735.7,286047000.2,P
1455603755.5,286046999.8,N
1455603775.3,286047001.0,N
1455603795.2,286047001.0,N
1455603815.9,286046997.4,N
1455603835.7,286046995.6,N
1455603855.6,286046998.9,N
1455603875.4,286046996.8,N
1455603895.2,286046998.3,N
1455603915.1,286046996.9,N
1455603916.0,286046996.9,N
1455603935.8,286046996.8,N
1455603955.6,286046998.4,N
1455603975.4,286046995.1,N
1455603995.3,286046995.9,N
1455604015.1,286046994.6,N
1455604035.9,286046991.7,Y
1455604055.7,286046997.9,P
1455604075.5,286046997.0,P
1455604095.3,286046997.6,P
1455604115.2,286046997.6,Y
1455604135.0,286047000.7,P
1455604135.9,286047000.7,N
1455604155.8,286047002.8,N
1455604175.6,286047000.9,N
1455604195.4,286047000.1,N
1455604215.2,286047000.3,N
1455604235.1,286047000.5,N
1455604236.0,286047000.5,N
1455604255.8,286046996.7,N
1455604275.7,286046996.8,N
1455604295.5,286046997.6,N
1455604315.3,286046998.4,N
1455604335.2,286046999.9,N
1455604355.9,286047001.0,N
1455604375.7,286047001.6,N
1455604395.5,286047002.4,N
1455604415.4,286047003.2,N
1455604435.2,286047007.2,Y
1455604455.0,286047009.7,P
1455604456.0,286047009.7,N
1455604475.8,286047010.5,N
1455604495.6,286047008.9,N
1455604515.4,286047010.1,N
1455604535.3,286047011.2,Y
1455604555.1,286046998.1,P
1455604575.8,286046999.1,N
1455604595.7,286046999.5,N
1455604615.5,286046996.8,N
1455604635.3,286046999.7,N
1455604655.2,286047005.3,N
1455604675.9,286047006.7,N
1455604695.7,286047005.2,N
1455604715.6,286047004.4,N
1455604735.4,286047003.1,N
1455604755.2,286047002.5,N
1455604775.1,286047001.1,N
1455604776.0,286047001.1,N
1455604795.8,286046997.7,N
1455604815.6,286046995.8,N
1455604835.5,286046997.7,N
1455604855.3,286046993.3,N
1455604875.1,286046993.5,N
1455604895.8,286046994.3,N
1455604915.7,286046995.5,N
1455604935.5,286046992.5,N
1455604955.3,286046992.3,N
1455604975.2,286046990.1,N
1455604995.9,286046988.9,N
1455605015.7,286046988.6,N
1455605035.6,286046988.9,N
1455605055.4,286046987.4,N
1455605075.2,286046989.6,N
1455605095.1,286046984.0,N
1455605096.0,286046984.0,N
1455605115.8,286046985.0,N
1455605135.6,286046980.9,N
1455605155.5,286046983.5,N
1455605175.3,286046979.2,N
1455605195.1,286046980.1,N
1455605215.8,286046980.2,N
1455605235.7,286046977.2,N
1455605255.5,286046975.0,Y
1455605275.3,286046980.9,P
1455605295.2,286046976.6,P
1455605315.0,286046974.2,P
1455605315.9,286046974.2,Y
1455605335.8,286046990.7,P
1455605355.6,286046988.8,N
1455605375.4,286046994.4,N
1455605395.2,286046999.4,N
1455605415.1,286046997.3,N
1455605416.0,286046997.3,N
1455605435.8,286046998.1,N
1455605455.6,286046997.4,N
1455605475.5,286046997.1,N
1455605495.3,286046996.3,N
1455605515.1,286046991.8,N
1455605535.9,286046994.8,N
1455605555.7,286046992.3,N
1455605575.5,286046990.6,N
1455605595.4,286046996.3,N
1455605615.2,286046996.2,N
1455605635.0,286046996.2,N
1455605635.9,286046996.2,N
1455605655.8,286046995.8,N
1455605675.6,286046993.7,N
1455605695.4,286046995.1,N
1455605715.2,286046995.5,N
1455605735.1,286046995.1,N
1455605736.0,286046995.1,N
1455605755.8,286046995.3,N
1455605775.6,286046995.8,N
1455605795.5,286046993.6,N
1455605815.3,286046998.3,N
1455605835.1,286047001.7,N
1455605855.9,286047002.0,N
1455605875.7,286047001.4,N
1455605895.5,286047004.3,N
1455605915.4,286047003.8,N
1455605935.2,286047005.6,N
1455605955.0,286047003.9,N
1455605955.9,286047003.9,N
1455605975.8,286047003.8,N
1455605995.6,286047001.6,N
